Tracking 27422 objects as of 31-May-2023
HD Live streaming from Space Station
objects crossing your sky now

NEE 02 KRYSAOR

Track NEE 02 KRYSAOR now!
10-day predictions
NEE 02 KRYSAOR is classified as:


NORAD ID: 39441
Int'l Code: 2013-066AB
Perigee: 588.7 km
Apogee: 700.9 km
Inclination: 97.8 °
Period: 97.5 minutes
Semi major axis: 7015 km
RCS: Unknown
Launch date: November 21, 2013
Source: Ecuador (ECU)
Launch site: Orenburg, Russia (OREN)

Uplink (MHz):
Downlink (MHz): 980.000(bandwidth 25MHz)
Beacon (MHz):
Mode:
Call sign:
Status:

Your satellite tracking list
Your tracking list is empty




NASA's NSSDC Master Catalog

Two Line Element Set (TLE):
1 39441U 13066AB  23150.40051314  .00001848  00000-0  25370-3 0  9997
2 39441  97.7827  96.5934 0079936 101.3544 259.6660 14.77357829511229
Source of the keplerian elements: AFSPC